AD4WX-13 Weather Reports


time (UTC)temp
F
wind
direction
speed
knots
gust
knots
rain 1hr
in
rain 24hr
in
rain mn
in
humidity
%
barometer
mb
20260510065318 53 211 0.0 0.0 0.00 0.00 0.00 91 1011.3
20260510064317 53 211 0.0 0.0 0.00 0.00 0.00 91 1011.2
20260510063320 54 211 0.0 0.0 0.00 0.00 0.00 91 1011.2
20260510062225 54 211 0.0 0.0 0.00 0.00 0.00 91 1011.3
20260510061129 54 211 0.0 0.0 0.00 0.00 0.00 91 1011.2
20260510060105 54 211 0.0 0.0 0.00 0.00 0.00 91 1011.2
20260510055124 54 211 0.0 0.0 0.00 0.00 0.00 91 1011.4
20260510054135 54 211 0.0 0.0 0.00 0.00 0.00 91 1011.3
20260510053126 54 211 0.0 0.0 0.00 0.00 0.00 91 1011.3
20260510052124 54 211 0.0 0.0 0.00 0.00 0.00 91 1011.3
20260510051138 55 211 0.0 0.0 0.00 0.00 0.00 91 1011.2
20260510050105 55 211 0.0 0.0 0.00 0.00 0.00 91 1011.2
20260510044919 55 211 0.0 0.0 0.00 0.00 0.00 91 1011.1
20260510043859 55 211 0.0 0.0 0.00 0.00 0.00 91 1011.0
20260510042843 55 211 0.0 0.0 0.00 0.00 0.00 91 1011.1
20260510041856 56 211 0.0 0.0 0.00 0.00 0.00 91 1011.0
20260510040800 56 211 0.0 0.0 0.00 0.00 0.00 90 1011.2
20260510035750 56 211 0.0 0.0 0.00 0.00 0.00 90 1011.2
20260510034744 56 211 0.0 0.0 0.00 0.00 0.00 90 1011.1
20260510033623 57 211 0.0 0.0 0.00 0.00 0.00 90 1011.2
20260510032554 57 211 0.0 0.0 0.00 0.00 0.00 90 1011.2
20260510031529 57 211 0.0 0.0 0.00 0.00 0.00 90 1011.1
20260510030548 58 211 0.0 0.0 0.00 0.00 0.00 89 1010.9
20260510025547 58 211 0.0 0.0 0.00 0.00 0.00 88 1010.9
20260510024601 59 211 0.0 0.0 0.00 0.00 0.00 88 1010.7
20260510023422 59 211 0.0 0.0 0.00 0.00 0.00 87 1010.7
20260510022442 60 211 0.0 0.0 0.00 0.00 0.00 86 1010.5
20260510021421 60 211 0.0 0.0 0.00 0.00 0.00 85 1010.4
20260510020354 61 211 0.0 0.0 0.00 0.00 0.00 84 1010.2
20260510015209 61 211 0.0 0.0 0.00 0.00 0.00 82 1010.0
20260510014217 62 211 0.0 0.0 0.00 0.00 0.00 81 1009.9
20260510013200 63 211 0.0 0.0 0.00 0.00 0.00 80 1009.8
20260510012144 64 211 0.0 0.0 0.00 0.00 0.00 78 1009.7
20260510011023 65 210 0.0 0.0 0.00 0.00 0.00 77 1009.4
20260510005924 66 211 0.0 0.0 0.00 0.00 0.00 75 1009.4
20260510004939 67 211 0.0 0.0 0.00 0.00 0.00 73 1009.2
20260510004003 68 165 0.0 0.0 0.00 0.00 0.00 71 1009.1
20260510003003 69 165 0.0 0.0 0.00 0.00 0.00 70 1009.0
20260510002024 70 310 0.0 0.0 0.00 0.00 0.00 67 1008.9
20260510001010 72 169 0.0 0.0 0.00 0.00 0.00 64 1008.9
20260509235947 73 169 0.0 0.0 0.00 0.00 0.00 58 1008.9
20260509234955 75 169 0.0 0.0 0.00 0.00 0.00 54 1008.8
20260509233925 76 169 0.0 0.0 0.00 0.00 0.00 52 1008.8
20260509232812 78 169 0.0 0.9 0.00 0.00 0.00 46 1008.6
20260509231815 78 169 0.0 0.0 0.00 0.00 0.00 39 1008.6
20260509230837 79 169 0.0 1.7 0.00 0.00 0.00 40 1008.6
20260509225851 81 243 0.0 0.0 0.00 0.00 0.00 41 1008.4
20260509224859 81 244 0.0 1.7 0.00 0.00 0.00 42 1008.4
20260509223905 81 338 0.0 2.6 0.00 0.00 0.00 41 1008.3
20260509222834 82 157 0.0 0.9 0.00 0.00 0.00 40 1008.4
20260509221819 82 155 0.0 1.7 0.00 0.00 0.00 38 1008.4
20260509220658 81 192 0.9 2.6 0.00 0.00 0.00 37 1008.3
20260509215512 81 155 0.9 4.3 0.00 0.00 0.00 39 1008.4
20260509214451 82 214 0.0 4.3 0.00 0.00 0.00 39 1008.3
20260509213426 82 204 0.9 4.3 0.00 0.00 0.00 39 1008.6
20260509212441 82 92 0.9 4.3 0.00 0.00 0.00 43 1008.4
20260509211253 83 57 0.0 2.6 0.00 0.00 0.00 38 1008.4
20260509210113 83 128 0.0 0.0 0.00 0.00 0.00 37 1008.4
20260509205022 83 146 0.0 4.3 0.00 0.00 0.00 39 1008.4
20260509203949 83 162 0.9 6.1 0.00 0.00 0.00 37 1008.5
20260509202931 84 177 1.7 6.1 0.00 0.00 0.00 38 1008.3
20260509201909 82 227 0.9 5.2 0.00 0.00 0.00 38 1008.5
20260509200842 82 157 0.9 5.2 0.00 0.00 0.00 42 1008.6
20260509195812 81 78 1.7 5.2 0.00 0.00 0.00 44 1008.5
20260509194804 82 191 0.0 4.3 0.00 0.00 0.00 42 1008.7
20260509193803 81 146 0.9 5.2 0.00 0.00 0.00 44 1008.7
20260509192746 83 169 0.9 4.3 0.00 0.00 0.00 42 1008.7
20260509191655 81 185 0.0 4.3 0.00 0.00 0.00 45 1008.8
20260509190706 81 185 0.9 4.3 0.00 0.00 0.00 45 1008.9
20260509185705 80 150 0.9 2.6 0.00 0.00 0.00 49 1009.0
20260509184540 79 61 0.9 4.3 0.00 0.00 0.00 49 1009.0
20260509183519 79 183 0.9 5.2 0.00 0.00 0.00 47 1009.1
20260509182411 78 234 0.9 5.2 0.00 0.00 0.00 51 1009.1
20260509181435 77 310 0.9 5.2 0.00 0.00 0.00 51 1009.2
20260509180452 78 226 0.9 4.3 0.00 0.00 0.00 50 1009.2
20260509175508 78 171 0.9 2.6 0.00 0.00 0.00 53 1009.1
20260509174451 77 119 0.9 3.5 0.00 0.00 0.00 54 1009.1
20260509173435 78 184 0.0 3.5 0.00 0.00 0.00 54 1009.2
20260509172426 76 44 0.0 4.3 0.00 0.00 0.00 57 1009.3
20260509171332 75 310 1.7 6.1 0.00 0.00 0.00 58 1009.3
20260509170259 76 214 1.7 6.1 0.00 0.00 0.00 55 1009.3
20260509165253 76 354 0.0 1.7 0.00 0.00 0.00 57 1009.3
20260509164227 75 354 0.0 3.5 0.00 0.00 0.00 57 1009.3
20260509163043 75 11 0.9 3.5 0.00 0.00 0.00 61 1009.3
20260509162031 74 17 0.9 3.5 0.00 0.00 0.00 57 1009.2
20260509161024 74 24 0.9 5.2 0.00 0.00 0.00 62 1009.2
20260509160034 74 17 0.9 5.2 0.00 0.00 0.00 60 1009.1
20260509155058 75 140 0.0 3.5 0.00 0.00 0.00 61 1009.1
20260509153949 74 174 0.9 5.2 0.00 0.00 0.00 62 1009.1
20260509152920 73 144 0.9 4.3 0.00 0.00 0.00 66 1009.1
20260509151924 72 173 0.9 7.0 0.00 0.00 0.00 66 1009.2
20260509150735 71 171 0.9 7.0 0.00 0.00 0.00 69 1009.2
20260509145757 71 156 0.9 7.0 0.00 0.00 0.00 68 1009.1
20260509144810 70 310 1.7 7.0 0.00 0.00 0.00 71 1009.1
20260509143750 69 206 2.6 7.0 0.00 0.00 0.00 71 1008.9
20260509142740 68 107 1.7 7.0 0.00 0.00 0.00 74 1009.0
20260509141730 67 310 1.7 7.0 0.00 0.00 0.00 76 1008.9
20260509140737 67 225 0.9 6.1 0.00 0.00 0.00 77 1008.8
20260509135718 65 310 1.7 5.2 0.00 0.00 0.00 79 1008.7
20260509134703 65 139 0.9 4.3 0.00 0.00 0.00 80 1008.8
20260509133719 64 175 0.0 2.6 0.00 0.00 0.00 83 1008.9
20260509132647 63 310 1.7 6.1 0.00 0.00 0.00 84 1008.8
20260509131548 62 150 0.9 8.7 0.00 0.00 0.00 86 1008.7
20260509130601 62 310 0.0 8.7 0.00 0.00 0.00 89 1008.9
20260509125537 61 105 0.0 2.6 0.00 0.00 0.00 90 1009.0
20260509124519 60 130 0.0 2.6 0.00 0.00 0.00 90 1008.9
20260509123526 59 134 0.0 0.9 0.00 0.00 0.00 89 1008.9
20260509122453 57 134 0.0 0.9 0.00 0.00 0.00 89 1008.9
20260509121316 55 134 0.0 1.7 0.00 0.00 0.00 89 1008.8
20260509120317 54 310 0.0 1.7 0.00 0.00 0.00 90 1008.7
20260509115254 54 310 0.0 0.9 0.00 0.00 0.00 90 1008.6
20260509114302 53 310 0.0 0.0 0.00 0.00 0.00 90 1008.5
20260509113259 52 310 0.0 0.0 0.00 0.00 0.00 90 1008.2
20260509112323 52 310 0.0 0.0 0.00 0.00 0.00 91 1008.1
20260509111323 51 310 0.0 0.0 0.00 0.00 0.00 91 1008.0
20260509110341 52 310 0.0 0.0 0.00 0.00 0.00 91 1007.7
20260509105317 52 310 0.0 0.0 0.00 0.00 0.00 91 1007.5
20260509104312 52 310 0.0 0.0 0.00 0.00 0.00 91 1007.6
20260509103321 52 310 0.0 0.9 0.00 0.00 0.00 91 1007.5
20260509102249 52 310 0.0 0.0 0.00 0.00 0.00 91 1007.8
20260509101243 52 310 0.0 0.0 0.00 0.00 0.00 91 1007.8
20260509100234 51 310 0.0 0.0 0.00 0.00 0.00 91 1007.9
20260509095246 52 310 0.0 0.0 0.00 0.00 0.00 91 1007.9
20260509094256 52 310 0.0 0.0 0.00 0.00 0.00 91 1007.8
20260509093224 51 310 0.0 0.0 0.00 0.00 0.00 91 1007.8
20260509092216 51 310 0.0 0.0 0.00 0.00 0.00 91 1008.0
20260509091208 52 310 0.0 0.0 0.00 0.00 0.00 91 1007.9
20260509090210 52 310 0.0 0.0 0.00 0.00 0.00 91 1007.9
20260509085229 52 310 0.0 0.0 0.00 0.00 0.00 91 1008.0
20260509084222 52 310 0.0 0.0 0.00 0.00 0.00 91 1007.9
20260509083155 52 310 0.0 0.0 0.00 0.00 0.00 91 1008.1
20260509082216 52 310 0.0 0.0 0.00 0.00 0.00 91 1008.1
20260509081144 52 310 0.0 0.0 0.00 0.00 0.00 91 1007.8
20260509080123 52 310 0.0 0.0 0.00 0.00 0.00 91 1007.7
20260509075100 52 310 0.0 0.0 0.00 0.00 0.00 91 1007.8
20260509074048 52 310 0.0 0.0 0.00 0.00 0.00 91 1008.0
20260509073047 52 310 0.0 0.0 0.00 0.00 0.00 91 1007.8
20260509072024 52 310 0.0 0.0 0.00 0.00 0.00 91 1008.0
20260509071025 52 310 0.0 0.0 0.00 0.00 0.00 91 1008.1
20260509070010 52 310 0.0 0.0 0.00 0.00 0.00 91 1008.3